This is the latest recevied weather packets stored in our database for station/object KA1JKB. If no packets are shown the sender has not sent any weather packets the latest 10 day(s).
| Time | Temp. | Humidity | Pressure | Rain* | Wind** | Luminosity | Snow |
|---|---|---|---|---|---|---|---|
| 1777731171 | 5.56° C | 62% | 1015.3 hPa | 0 mm | - | 693 W/m² | - |
| 1777730869 | 6.11° C | 60% | 1015.4 hPa | 0 mm | - | 684 W/m² | - |
| 1777730566 | 6.67° C | 62% | 1015.4 hPa | 0 mm | - | 626 W/m² | - |
| 1777730262 | 6.11° C | 62% | 1015.4 hPa | 0 mm | - | 606 W/m² | - |
| 1777729959 | 5.56° C | 66% | 1015.4 hPa | 0 mm | - | 592 W/m² | - |
| 1777729655 | 6.11° C | 66% | 1015.5 hPa | 0 mm | - | 570 W/m² | - |
| 1777729352 | 5.56° C | 68% | 1015.7 hPa | 0 mm | - | 537 W/m² | - |
| 1777729048 | 5.56° C | 66% | 1015.6 hPa | 0 mm | - | 492 W/m² | - |
| 1777728745 | 5.56° C | 70% | 1015.5 hPa | 0 mm | - | 489 W/m² | - |
| 1777728442 | 5° C | 70% | 1015.6 hPa | 0 mm | - | 549 W/m² | - |
| 1777728139 | 4.44° C | 71% | 1015.6 hPa | 0 mm | - | 540 W/m² | - |
| 1777727836 | 4.44° C | 71% | 1015.7 hPa | 0 mm | - | 528 W/m² | - |
| 1777727534 | 3.89° C | 71% | 1015.7 hPa | 0 mm | - | 517 W/m² | - |
| 1777727230 | 4.44° C | 71% | 1015.5 hPa | 0 mm | - | 498 W/m² | - |
| 1777726928 | 4.44° C | 73% | 1015.6 hPa | 0 mm | - | 460 W/m² | - |
| 1777726624 | 3.89° C | 75% | 1015.5 hPa | 0 mm | - | 429 W/m² | - |
| 1777726322 | 3.89° C | 74% | 1015.6 hPa | 0 mm | - | 376 W/m² | - |
| 1777726018 | 3.89° C | 75% | 1015.5 hPa | 0 mm | - | 319 W/m² | - |
| 1777725715 | 3.89° C | 75% | 1015.6 hPa | 0 mm | - | 312 W/m² | - |
| 1777725414 | 3.33° C | 76% | 1015.5 hPa | 0 mm | - | 304 W/m² | - |
| 1777725111 | 3.33° C | 76% | 1015.7 hPa | 0 mm | - | 271 W/m² | - |
| 1777724807 | 3.89° C | 77% | 1015.6 hPa | 0 mm | - | 245 W/m² | - |
| 1777724504 | 3.33° C | 76% | 1015.4 hPa | 0 mm | - | 213 W/m² | - |
| 1777724202 | 3.33° C | 78% | 1015.4 hPa | 0 mm | - | 194 W/m² | - |
| 1777723899 | 2.78° C | 77% | 1015.4 hPa | 0 mm | - | 171 W/m² | - |
* Rain latest hour (hover to see other rain measurements)
** Current wind speed in m/s (hover to see current wind gust speed)